| time (UTC) | temp F | wind direction | speed MPH | gust MPH | rain 1hr in | rain 24hr in | rain mn in | humidity % | barometer mb |
| 20260503010004 | 44 | 65 | 10.0 | 14.0 | 0.00 | 0.00 | 0.00 | 94 | 1014.8 |
| 20260503004504 | 44 | 73 | 7.0 | 14.0 | 0.00 | 0.00 | 0.00 | 94 | 1014.6 |
| 20260503003004 | 44 | 71 | 8.0 | 13.0 | 0.00 | 0.00 | 0.00 | 95 | 1014.7 |
| 20260503001504 | 44 | 62 | 10.0 | 14.0 | 0.00 | 0.00 | 0.00 | 95 | 1014.8 |
| 20260503000004 | 44 | 69 | 9.0 | 16.0 | 0.00 | 0.00 | 0.00 | 95 | 1014.8 |
| 20260502234504 | 44 | 74 | 8.0 | 12.0 | 0.00 | 0.00 | 0.00 | 95 | 1014.9 |
| 20260502233004 | 44 | 72 | 9.0 | 14.0 | 0.00 | 0.00 | 0.00 | 95 | 1015.0 |
| 20260502231504 | 44 | 67 | 11.0 | 15.0 | 0.00 | 0.00 | 0.00 | 95 | 1014.8 |
| 20260502230004 | 44 | 66 | 8.0 | 14.0 | 0.00 | 0.00 | 0.00 | 96 | 1014.9 |
| 20260502224525 | 44 | 66 | 8.0 | 14.0 | 0.00 | 0.00 | 0.00 | 96 | 1014.9 |
| 20260502223004 | 44 | 60 | 10.0 | 16.0 | 0.00 | 0.00 | 0.00 | 96 | 1015.0 |
| 20260502221525 | 44 | 56 | 13.0 | 18.0 | 0.00 | 0.00 | 0.00 | 96 | 1015.0 |
| 20260502220004 | 45 | 64 | 11.0 | 15.0 | 0.00 | 0.00 | 0.00 | 96 | 1015.0 |
| 20260502214504 | 45 | 66 | 11.0 | 19.0 | 0.00 | 0.00 | 0.00 | 97 | 1015.1 |
| 20260502213004 | 45 | 61 | 10.0 | 16.0 | 0.00 | 0.00 | 0.00 | 97 | 1015.0 |
| 20260502211504 | 45 | 56 | 12.0 | 18.0 | 0.00 | 0.00 | 0.00 | 97 | 1015.1 |
| 20260502210004 | 45 | 47 | 13.0 | 18.0 | 0.00 | 0.00 | 0.00 | 97 | 1015.0 |
| 20260502204504 | 45 | 45 | 13.0 | 20.0 | 0.00 | 0.00 | 0.00 | 97 | 1015.2 |
| 20260502203004 | 45 | 48 | 13.0 | 18.0 | 0.00 | 0.00 | 0.00 | 96 | 1015.1 |
| 20260502201504 | 46 | 50 | 12.0 | 16.0 | 0.00 | 0.00 | 0.00 | 97 | 1015.0 |
| 20260502200004 | 46 | 46 | 13.0 | 19.0 | 0.00 | 0.00 | 0.00 | 96 | 1014.9 |
| 20260502194504 | 46 | 44 | 14.0 | 18.0 | 0.00 | 0.00 | 0.00 | 96 | 1014.8 |
| 20260502193025 | 46 | 45 | 13.0 | 18.0 | 0.00 | 0.00 | 0.00 | 96 | 1014.7 |
| 20260502191524 | 46 | 48 | 13.0 | 18.0 | 0.00 | 0.00 | 0.00 | 96 | 1014.6 |
| 20260502190004 | 46 | 49 | 12.0 | 18.0 | 0.00 | 0.00 | 0.00 | 95 | 1014.5 |
| 20260502184503 | 46 | 44 | 12.0 | 15.0 | 0.00 | 0.00 | 0.00 | 95 | 1014.4 |
| 20260502183004 | 46 | 43 | 13.0 | 18.0 | 0.00 | 0.00 | 0.00 | 95 | 1014.5 |
| 20260502181503 | 47 | 43 | 11.0 | 16.0 | 0.00 | 0.00 | 0.00 | 95 | 1014.3 |
| 20260502163003 | 47 | 53 | 14.0 | 16.0 | 0.00 | 0.00 | 0.00 | 94 | 1013.9 |
| 20260502161504 | 47 | 53 | 11.0 | 15.0 | 0.00 | 0.00 | 0.00 | 94 | 1013.8 |
| 20260502151503 | 48 | 41 | 11.0 | 15.0 | 0.00 | 0.00 | 0.00 | 93 | 1013.8 |
| 20260502123003 | 54 | 27 | 9.0 | 12.0 | 0.00 | 0.00 | 0.00 | 87 | 1013.3 |
| 20260502121503 | 54 | 15 | 6.0 | 12.0 | 0.00 | 0.00 | 0.00 | 88 | 1013.4 |
| 20260502114503 | 54 | 15 | 9.0 | 14.0 | 0.00 | 0.00 | 0.00 | 88 | 1013.3 |
| 20260502113024 | 54 | 15 | 9.0 | 13.0 | 0.00 | 0.00 | 0.00 | 88 | 1013.2 |
| 20260502111503 | 54 | 30 | 7.0 | 12.0 | 0.00 | 0.00 | 0.00 | 89 | 1013.1 |
| 20260502110024 | 52 | 36 | 5.0 | 10.0 | 0.00 | 0.00 | 0.00 | 89 | 1013.0 |
| 20260502104503 | 52 | 31 | 4.0 | 8.0 | 0.00 | 0.00 | 0.00 | 92 | 1012.9 |
| 20260502103003 | 51 | 21 | 4.0 | 8.0 | 0.00 | 0.00 | 0.00 | 93 | 1012.9 |
| 20260502101524 | 50 | 13 | 5.0 | 9.0 | 0.00 | 0.00 | 0.00 | 93 | 1012.9 |
| 20260502091503 | 50 | 359 | 5.0 | 9.0 | 0.00 | 0.00 | 0.00 | 91 | 1012.7 |
| 20260502071503 | 50 | 35 | 0.0 | 3.0 | 0.00 | 0.00 | 0.00 | 85 | 1012.0 |
| 20260502070003 | 50 | 31 | 2.0 | 3.0 | 0.00 | 0.00 | 0.00 | 87 | 1012.0 |
| 20260502064503 | 50 | 279 | 1.0 | 3.0 | 0.00 | 0.00 | 0.00 | 89 | 1011.8 |
| 20260502063003 | 49 | 246 | 0.0 | 2.0 | 0.00 | 0.00 | 0.00 | 90 | 1011.8 |
| 20260502061503 | 48 | 257 | 1.0 | 3.0 | 0.00 | 0.00 | 0.00 | 92 | 1011.7 |
| 20260502060024 | 47 | 296 | 0.0 | 1.0 | 0.00 | 0.00 | 0.00 | 90 | 1011.5 |
| 20260502054503 | 48 | 0 | 0.0 | 0.0 | 0.00 | 0.00 | 0.00 | 89 | 1011.5 |
| 20260502053003 | 48 | 0 | 0.0 | 0.0 | 0.00 | 0.00 | 0.00 | 89 | 1011.7 |
| 20260502051503 | 47 | 285 | 1.0 | 3.0 | 0.00 | 0.00 | 0.00 | 89 | 1011.6 |
| 20260502050003 | 46 | 274 | 1.0 | 3.0 | 0.00 | 0.00 | 0.00 | 90 | 1011.6 |
| 20260502044504 | 46 | 248 | 3.0 | 7.0 | 0.00 | 0.00 | 0.00 | 88 | 1011.4 |
| 20260502043003 | 46 | 243 | 5.0 | 9.0 | 0.00 | 0.00 | 0.00 | 90 | 1011.7 |
| 20260502041503 | 45 | 242 | 1.0 | 3.0 | 0.00 | 0.00 | 0.00 | 90 | 1011.4 |
| 20260502040003 | 45 | 0 | 0.0 | 0.0 | 0.00 | 0.00 | 0.00 | 88 | 1011.5 |
| 20260502034503 | 46 | 242 | 2.0 | 4.0 | 0.00 | 0.00 | 0.00 | 87 | 1011.6 |
| 20260502033024 | 46 | 241 | 4.0 | 5.0 | 0.00 | 0.00 | 0.00 | 87 | 1011.7 |
| 20260502031503 | 47 | 244 | 5.0 | 7.0 | 0.00 | 0.00 | 0.00 | 87 | 1011.7 |
| 20260502030018 | 47 | 246 | 2.0 | 4.0 | 0.00 | 0.00 | 0.00 | 86 | 1011.7 |
| 20260502024503 | 47 | 244 | 4.0 | 7.0 | 0.00 | 0.00 | 0.00 | 85 | 1011.8 |
| 20260502023003 | 48 | 245 | 5.0 | 7.0 | 0.00 | 0.00 | 0.00 | 85 | 1011.9 |
| 20260502021503 | 48 | 243 | 5.0 | 7.0 | 0.00 | 0.00 | 0.00 | 85 | 1012.0 |
| 20260502020004 | 48 | 239 | 6.0 | 8.0 | 0.00 | 0.00 | 0.00 | 85 | 1012.2 |
| 20260502014505 | 48 | 238 | 5.0 | 8.0 | 0.00 | 0.00 | 0.00 | 85 | 1012.3 |
| 20260502013004 | 48 | 238 | 4.0 | 8.0 | 0.00 | 0.00 | 0.00 | 85 | 1012.3 |
| 20260502011505 | 48 | 239 | 6.0 | 9.0 | 0.00 | 0.00 | 0.00 | 86 | 1012.5 |